Location: Les Chemineaux
(47.3024°N, 1.5104°E)
Time: 16:29:05
(UTC+00:00)

NOSS 2-1 (C) - Pass Details

Date: 19 May 2025
Orbit: 378 x 1699 km, 63.3° (Epoch: 12 June)

Event Time Altitude Azimuth Distance (km) Brightness Sun altitude
Exits shadow 22:55:15 51° 34° (NE) 524 3.4 -21.6°
Drops below altitude 10° 22:57:35 10° 39° (NE) 1,423 5.9 -21.7°
Sets 22:59:30 0° 40° (NE) 2,259 7.0 -21.7°
